GAOFEN 14 (47231 NORAD) Tracking and Keplerian Element Data

This shows tracking and keplerian element data for the satellite.

Feedback or suggestion? Click here.




ElementValue
Catalog47231
NameGAOFEN 14
Epoch Orbit699
Epoch Day21.07296042
Epoch Year2021
RAAN98.6031
Inclination97.4357
Eccentricity0.0013155
Argument of Perigee100.6254
Mean Anonmoly352.8802
Mean Motion15.25611716
Decay Rate6.98E-06
L11 47231U 20092A 21021.07296042 .00000698 00000-0 30282-4 0 9998
L22 47231 97.4357 98.6031 0013155 100.6254 352.8802 15.25611716 6991

Live tracking and technical data element details for GAOFEN 14 (NORAD 47231). GAOFEN 14 can be tracked NOW for your location showing map with azimuth and elevation plus other details from your city location.

Track the satellite on the map from your city or location and see movement details for azimuth, elevation, latitude, longitude, range, height, and movement on the map or in text.







IsCatalogInMostPopularTable: catalog: 47231, numindb: 29
Update: records affected: 1



GetName: 47231 GAOFEN 14

Hit Count: updated at: Fri, 22 Jan 2021 16:02:20 GMT